ARIANE 5 R/B, 31308

Orbit data source: Space-Track

ARIANE 5 R/B, 31308 is space debris in HEO originally from a launch on Fri, 04 May 2007 UTC launched from the French Guiana (FRGUI). Debris objects in space refer to the collection of defunct objects orbiting the Earth. Examples of debris include non-operational satellites, rocket bodies, and fragments generated from explosions, collisions, or faulty payload assembly.

Loading next visibility...
Identifier
31308, 2007-016C
Orbit
HEO
Country
Flag of FRFR
Related business
Manufacturer
EADS/LV
Mission
Spacecraft
Bus & Motor
ESC-A, Unknown motor
Mass
~5,000 kg wet, ~5,000 kg dry
Launch date (UTC)
2007-05-04 (18 years ago)
Launch vehicle
Unknown
Launch site
French Guiana (FRGUI)
Object type
Payload
Rocket body
Debris
Shape & HBR
Cyl + 1 Nozzle, 3.5 m
Radar Cross Section
41.627 m², Large (>1 m²)

Expand to show TLE details & history
Last TLE update: 18 hours ago

TLE from 18 hours ago
0 ARIANE 5 R/B
1 31308U 07016C   25258.98350228  .00008297  00000-0  14029-2 0  9992
2 31308   5.4502 177.5931 6920203 171.7834 211.9741  2.75728253166402
Epoch: 2025-09-15T23:36Z
TLE epoch observation values (Epoch: 2025-09-15T23:36:14.596Z)
Latitude
0.00009°
Longitude
-171.71233°
Altitude
29,167.858 km
Speed
1.968 km/s
True Right ascension
11h 50m 06s
True Declination
0° 00' 00"
Sunlit
Object was in daylight at epoch
Visualization orbit readout
Latitude
Unknown
Longitude
Unknown
Altitude
Unknown
Speed
Unknown
Apparent Right ascension
Unknown
Apparent Declination
Unknown
Sunlit
N/A
Visualization observer readout
Local Sidereal Time
10:25:58
Azimuth
Unknown
Elevation
Unknown
Doppler factor
Unknown
Orbital elements
Apogee altitude
29,979.49 km
Perigee altitude
239.639 km
Semi-major axis
21,487.701 km
Eccentricity
0.69202
Inclination
5.4502°
RAAN
177.5931°
Arg. of periapsis
171.7834°
True anomaly
188.1846°
Mean anomaly
211.9741°
Eccentric anomaly
199.03952°
Mean motion
0.68906 °/min
Orbital period
522.45 mins
BSTAR
0.0014029
Loading maneuver chart data...
Computing Atmospheric mass density...
Loading historical data...
Loading historical data...
Loading historical data...
Loading historical data...
Loading historical data...
Loading historical data...
Loading historical data...
Other satellites on launch #16 in the year 2007 (2007-05-04 UTC)

Documentation

Showing up to 5 results
|